Year,Month,Day,Hour,Minute,Value (Times are PST for temperature in C)
2014,07,10,00,00,14.60
2014,07,10,00,01,14.60
2014,07,10,00,02,14.50
2014,07,10,00,03,14.50
2014,07,10,00,04,14.40
2014,07,10,00,05,14.30
2014,07,10,00,06,14.30
2014,07,10,00,07,14.30
2014,07,10,00,08,14.30
2014,07,10,00,09,14.30
2014,07,10,00,10,14.30
2014,07,10,00,11,14.30
2014,07,10,00,12,14.30
2014,07,10,00,13,14.30
2014,07,10,00,14,14.30
2014,07,10,00,15,14.30
2014,07,10,00,16,14.20
2014,07,10,00,17,14.20
2014,07,10,00,18,14.20
2014,07,10,00,19,14.20
2014,07,10,00,20,14.20
2014,07,10,00,21,14.20
2014,07,10,00,22,14.20
2014,07,10,00,23,14.20
2014,07,10,00,24,14.20
2014,07,10,00,25,14.10
2014,07,10,00,26,14.10
2014,07,10,00,27,14.10
2014,07,10,00,28,14.10
2014,07,10,00,29,14.00
2014,07,10,00,30,14.00
2014,07,10,00,31,14.00
2014,07,10,00,32,13.90
2014,07,10,00,33,13.90
2014,07,10,00,34,13.90
2014,07,10,00,35,13.80
2014,07,10,00,36,13.80
2014,07,10,00,37,13.80
2014,07,10,00,38,13.70
2014,07,10,00,39,13.70
2014,07,10,00,40,13.70
2014,07,10,00,41,13.60
2014,07,10,00,42,13.60
2014,07,10,00,43,13.60
2014,07,10,00,44,13.60
2014,07,10,00,45,13.50
2014,07,10,00,46,13.50
2014,07,10,00,47,13.50
2014,07,10,00,48,13.50
2014,07,10,00,49,13.50
2014,07,10,00,50,13.50
2014,07,10,00,51,13.50
2014,07,10,00,52,13.50
2014,07,10,00,53,13.50
2014,07,10,00,54,13.40
2014,07,10,00,55,13.40
2014,07,10,00,56,13.40
2014,07,10,00,57,13.40
2014,07,10,00,58,13.40
2014,07,10,00,59,13.40
2014,07,10,01,00,13.40
2014,07,10,01,01,13.40
2014,07,10,01,02,13.40
2014,07,10,01,03,13.40
2014,07,10,01,04,13.40
2014,07,10,01,05,13.40
2014,07,10,01,06,13.40
2014,07,10,01,07,13.40
2014,07,10,01,08,13.40
2014,07,10,01,09,13.30
2014,07,10,01,10,13.30
2014,07,10,01,11,13.30
2014,07,10,01,12,13.30
2014,07,10,01,13,13.30
2014,07,10,01,14,13.30
2014,07,10,01,15,13.30
2014,07,10,01,16,13.30
2014,07,10,01,17,13.30
2014,07,10,01,18,13.30
2014,07,10,01,19,13.30
2014,07,10,01,20,13.30
2014,07,10,01,21,13.30
2014,07,10,01,22,13.30
2014,07,10,01,23,13.30
2014,07,10,01,24,13.30
2014,07,10,01,25,13.30
2014,07,10,01,26,13.30
2014,07,10,01,27,13.30
2014,07,10,01,28,13.30
2014,07,10,01,29,13.30
2014,07,10,01,30,13.30
2014,07,10,01,31,13.30
2014,07,10,01,32,13.30
2014,07,10,01,33,13.30
2014,07,10,01,34,13.30
2014,07,10,01,35,13.30
2014,07,10,01,36,13.20
2014,07,10,01,37,13.20
2014,07,10,01,38,13.20
2014,07,10,01,39,13.20
2014,07,10,01,40,13.20
2014,07,10,01,41,13.20
2014,07,10,01,42,13.20
2014,07,10,01,43,13.20
2014,07,10,01,44,13.20
2014,07,10,01,45,13.10
2014,07,10,01,46,13.10
2014,07,10,01,47,13.10
2014,07,10,01,48,13.10
2014,07,10,01,49,13.00
2014,07,10,01,50,13.00
2014,07,10,01,51,13.00
2014,07,10,01,52,13.00
2014,07,10,01,53,13.00
2014,07,10,01,54,12.90
2014,07,10,01,55,12.90
2014,07,10,01,56,12.90
2014,07,10,01,57,12.90
2014,07,10,01,58,12.90
2014,07,10,01,59,12.80
2014,07,10,02,00,12.80
2014,07,10,02,01,12.80
2014,07,10,02,02,12.70
2014,07,10,02,03,12.70
2014,07,10,02,04,12.70
2014,07,10,02,05,12.70
2014,07,10,02,06,12.70
2014,07,10,02,07,12.70
2014,07,10,02,08,12.70
2014,07,10,02,09,12.70
2014,07,10,02,10,12.70
2014,07,10,02,11,12.70
2014,07,10,02,12,12.70
2014,07,10,02,13,12.70
2014,07,10,02,14,12.70
2014,07,10,02,15,12.70
2014,07,10,02,16,12.70
2014,07,10,02,17,12.70
2014,07,10,02,18,12.70
2014,07,10,02,19,12.70
2014,07,10,02,20,12.70
2014,07,10,02,21,12.70
2014,07,10,02,22,12.70
2014,07,10,02,23,12.60
2014,07,10,02,24,12.60
2014,07,10,02,25,12.70
2014,07,10,02,26,12.70
2014,07,10,02,27,12.70
2014,07,10,02,28,12.70
2014,07,10,02,29,12.70
2014,07,10,02,30,12.70
2014,07,10,02,31,12.70
2014,07,10,02,32,12.70
2014,07,10,02,33,12.70
2014,07,10,02,34,12.70
2014,07,10,02,35,12.70
2014,07,10,02,36,12.70
2014,07,10,02,37,12.70
2014,07,10,02,38,12.70
2014,07,10,02,39,12.70
2014,07,10,02,40,12.60
2014,07,10,02,41,12.60
2014,07,10,02,42,12.60
2014,07,10,02,43,12.60
2014,07,10,02,44,12.60
2014,07,10,02,45,12.60
2014,07,10,02,46,12.60
2014,07,10,02,47,12.60
2014,07,10,02,48,12.60
2014,07,10,02,49,12.50
2014,07,10,02,50,12.50
2014,07,10,02,51,12.50
2014,07,10,02,52,12.50
2014,07,10,02,53,12.50
2014,07,10,02,54,12.40
2014,07,10,02,55,12.40
2014,07,10,02,56,12.40
2014,07,10,02,57,12.40
2014,07,10,02,58,12.40
2014,07,10,02,59,12.40
2014,07,10,03,00,12.40
2014,07,10,03,01,12.40
2014,07,10,03,02,12.40
2014,07,10,03,03,12.40
2014,07,10,03,04,12.40
2014,07,10,03,05,12.40
2014,07,10,03,06,12.40
2014,07,10,03,07,12.40
2014,07,10,03,08,12.40
2014,07,10,03,09,12.40
2014,07,10,03,10,12.40
2014,07,10,03,11,12.30
2014,07,10,03,12,12.30
2014,07,10,03,13,12.30
2014,07,10,03,14,12.30
2014,07,10,03,15,12.30
2014,07,10,03,16,12.30
2014,07,10,03,17,12.30
2014,07,10,03,18,12.30
2014,07,10,03,19,12.30
2014,07,10,03,20,12.30
2014,07,10,03,21,12.30
2014,07,10,03,22,12.30
2014,07,10,03,23,12.30
2014,07,10,03,24,12.30
2014,07,10,03,25,12.30
2014,07,10,03,26,12.20
2014,07,10,03,27,12.20
2014,07,10,03,28,12.20
2014,07,10,03,29,12.20
2014,07,10,03,30,12.20
2014,07,10,03,31,12.20
2014,07,10,03,32,12.20
2014,07,10,03,33,12.20
2014,07,10,03,34,12.20
2014,07,10,03,35,12.20
2014,07,10,03,36,12.20
2014,07,10,03,37,12.20
2014,07,10,03,38,12.20
2014,07,10,03,39,12.20
2014,07,10,03,40,12.10
2014,07,10,03,41,12.10
2014,07,10,03,42,12.10
2014,07,10,03,43,12.10
2014,07,10,03,44,12.10
2014,07,10,03,45,12.10
2014,07,10,03,46,12.10
2014,07,10,03,47,12.10
2014,07,10,03,48,12.00
2014,07,10,03,49,12.00
2014,07,10,03,50,12.00
2014,07,10,03,51,12.00
2014,07,10,03,52,12.00
2014,07,10,03,53,12.00
2014,07,10,03,54,12.00
2014,07,10,03,55,12.00
2014,07,10,03,56,12.00
2014,07,10,03,57,11.90
2014,07,10,03,58,11.90
2014,07,10,03,59,11.90
2014,07,10,04,00,11.90
2014,07,10,04,01,11.90
2014,07,10,04,02,11.90
2014,07,10,04,03,11.90
2014,07,10,04,04,11.90
2014,07,10,04,05,11.90
2014,07,10,04,06,11.90
2014,07,10,04,07,11.90
2014,07,10,04,08,11.90
2014,07,10,04,09,11.90
2014,07,10,04,10,11.90
2014,07,10,04,11,11.90
2014,07,10,04,12,11.90
2014,07,10,04,13,11.80
2014,07,10,04,14,11.80
2014,07,10,04,15,11.80
2014,07,10,04,16,11.80
2014,07,10,04,17,11.80
2014,07,10,04,18,11.80
2014,07,10,04,19,11.80
2014,07,10,04,20,11.80
2014,07,10,04,21,11.80
2014,07,10,04,22,11.80
2014,07,10,04,23,11.80
2014,07,10,04,24,11.80
2014,07,10,04,25,11.70
2014,07,10,04,26,11.70
2014,07,10,04,27,11.80
2014,07,10,04,28,11.80
2014,07,10,04,29,11.80
2014,07,10,04,30,11.80
2014,07,10,04,31,11.80
2014,07,10,04,32,11.80
2014,07,10,04,33,11.80
2014,07,10,04,34,11.80
2014,07,10,04,35,11.80
2014,07,10,04,36,11.80
2014,07,10,04,37,11.80
2014,07,10,04,38,11.80
2014,07,10,04,39,11.80
2014,07,10,04,40,11.80
2014,07,10,04,41,11.80
2014,07,10,04,42,11.70
2014,07,10,04,43,11.70
2014,07,10,04,44,11.70
2014,07,10,04,45,11.70
2014,07,10,04,46,11.70
2014,07,10,04,47,11.70
2014,07,10,04,48,11.70
2014,07,10,04,49,11.70
2014,07,10,04,50,11.70
2014,07,10,04,51,11.60
2014,07,10,04,52,11.60
2014,07,10,04,53,11.60
2014,07,10,04,54,11.60
2014,07,10,04,55,11.60
2014,07,10,04,56,11.60
2014,07,10,04,57,11.60
2014,07,10,04,58,11.60
2014,07,10,04,59,11.60
2014,07,10,05,00,11.60
2014,07,10,05,01,11.60
2014,07,10,05,02,11.60
2014,07,10,05,03,11.60
2014,07,10,05,04,11.60
2014,07,10,05,05,11.60
2014,07,10,05,06,11.60
2014,07,10,05,07,11.60
2014,07,10,05,08,11.60
2014,07,10,05,09,11.60
2014,07,10,05,10,11.60
2014,07,10,05,11,11.60
2014,07,10,05,12,11.60
2014,07,10,05,13,11.60
2014,07,10,05,14,11.60
2014,07,10,05,15,11.60
2014,07,10,05,16,11.60
2014,07,10,05,17,11.60
2014,07,10,05,18,11.50
2014,07,10,05,19,11.50
2014,07,10,05,20,11.50
2014,07,10,05,21,11.40
2014,07,10,05,22,11.40
2014,07,10,05,23,11.40
2014,07,10,05,24,11.40
2014,07,10,05,25,11.40
2014,07,10,05,26,11.40
2014,07,10,05,27,11.40
2014,07,10,05,28,11.40
2014,07,10,05,29,11.40
2014,07,10,05,30,11.30
2014,07,10,05,31,11.30
2014,07,10,05,32,11.30
2014,07,10,05,33,11.30
2014,07,10,05,34,11.30
2014,07,10,05,35,11.30
2014,07,10,05,36,11.30
2014,07,10,05,37,11.20
2014,07,10,05,38,11.20
2014,07,10,05,39,11.20
2014,07,10,05,40,11.20
2014,07,10,05,41,11.20
2014,07,10,05,42,11.20
2014,07,10,05,43,11.20
2014,07,10,05,44,11.20
2014,07,10,05,45,11.20
2014,07,10,05,46,11.20
2014,07,10,05,47,11.20
2014,07,10,05,48,11.20
2014,07,10,05,49,11.20
2014,07,10,05,50,11.20
2014,07,10,05,51,11.10
2014,07,10,05,52,11.10
2014,07,10,05,53,11.20
2014,07,10,05,54,11.20
2014,07,10,05,55,11.20
2014,07,10,05,56,11.20
2014,07,10,05,57,11.20
2014,07,10,05,58,11.20
2014,07,10,05,59,11.20
2014,07,10,06,00,11.30
2014,07,10,06,01,11.30
2014,07,10,06,02,11.40
2014,07,10,06,03,11.50
2014,07,10,06,04,11.60
2014,07,10,06,05,11.70
2014,07,10,06,06,11.80
2014,07,10,06,07,11.80
2014,07,10,06,08,11.90
2014,07,10,06,09,11.90
2014,07,10,06,10,12.00
2014,07,10,06,11,12.00
2014,07,10,06,12,12.00
2014,07,10,06,13,12.10
2014,07,10,06,14,12.10
2014,07,10,06,15,12.10
2014,07,10,06,16,12.10
2014,07,10,06,17,12.10
2014,07,10,06,18,12.10
2014,07,10,06,19,12.20
2014,07,10,06,20,12.20
2014,07,10,06,21,12.20
2014,07,10,06,22,12.20
2014,07,10,06,23,12.20
2014,07,10,06,24,12.30
2014,07,10,06,25,12.40
2014,07,10,06,26,12.50
2014,07,10,06,27,12.60
2014,07,10,06,28,12.70
2014,07,10,06,29,12.80
2014,07,10,06,30,12.90
2014,07,10,06,31,13.00
2014,07,10,06,32,13.10
2014,07,10,06,33,13.20
2014,07,10,06,34,13.20
2014,07,10,06,35,13.20
2014,07,10,06,36,13.30
2014,07,10,06,37,13.30
2014,07,10,06,38,13.30
2014,07,10,06,39,13.40
2014,07,10,06,40,13.40
2014,07,10,06,41,13.40
2014,07,10,06,42,13.50
2014,07,10,06,43,13.50
2014,07,10,06,44,13.60
2014,07,10,06,45,13.60
2014,07,10,06,46,13.70
2014,07,10,06,47,13.70
2014,07,10,06,48,13.80
2014,07,10,06,49,13.80
2014,07,10,06,50,13.80
2014,07,10,06,51,13.80
2014,07,10,06,52,13.90
2014,07,10,06,53,13.90
2014,07,10,06,54,13.90
2014,07,10,06,55,13.90
2014,07,10,06,56,13.90
2014,07,10,06,57,13.90
2014,07,10,06,58,13.90
2014,07,10,06,59,13.90
2014,07,10,07,00,13.90
2014,07,10,07,01,14.00
2014,07,10,07,02,14.00
2014,07,10,07,03,14.00
2014,07,10,07,04,14.00
2014,07,10,07,05,14.00
2014,07,10,07,06,14.00
2014,07,10,07,07,14.10
2014,07,10,07,08,14.10
2014,07,10,07,09,14.20
2014,07,10,07,10,14.20
2014,07,10,07,11,14.30
2014,07,10,07,12,14.30
2014,07,10,07,13,14.40
2014,07,10,07,14,14.50
2014,07,10,07,15,14.50
2014,07,10,07,16,14.60
2014,07,10,07,17,14.60
2014,07,10,07,18,14.70
2014,07,10,07,19,14.70
2014,07,10,07,20,14.80
2014,07,10,07,21,14.80
2014,07,10,07,22,14.90
2014,07,10,07,23,15.00
2014,07,10,07,24,15.00
2014,07,10,07,25,15.00
2014,07,10,07,26,15.00
2014,07,10,07,27,15.00
2014,07,10,07,28,15.00
2014,07,10,07,29,15.00
2014,07,10,07,30,15.10
2014,07,10,07,31,15.20
2014,07,10,07,32,15.20
2014,07,10,07,33,15.30
2014,07,10,07,34,15.30
2014,07,10,07,35,15.30
2014,07,10,07,36,15.40
2014,07,10,07,37,15.40
2014,07,10,07,38,15.40
2014,07,10,07,39,15.40
2014,07,10,07,40,15.40
2014,07,10,07,41,15.50
2014,07,10,07,42,15.50
2014,07,10,07,43,15.50
2014,07,10,07,44,15.50
2014,07,10,07,45,15.60
2014,07,10,07,46,15.60
2014,07,10,07,47,15.60
2014,07,10,07,48,15.60
2014,07,10,07,49,15.70
2014,07,10,07,50,15.70
2014,07,10,07,51,15.70
2014,07,10,07,52,15.70
2014,07,10,07,53,15.80
2014,07,10,07,54,15.80
2014,07,10,07,55,15.80
2014,07,10,07,56,15.80
2014,07,10,07,57,15.90
2014,07,10,07,58,15.90
2014,07,10,07,59,15.90
2014,07,10,08,00,15.90
2014,07,10,08,01,16.00
2014,07,10,08,02,16.00
2014,07,10,08,03,16.10
2014,07,10,08,04,16.10
2014,07,10,08,05,16.10
2014,07,10,08,06,16.10
2014,07,10,08,07,16.10
2014,07,10,08,08,16.10
2014,07,10,08,09,16.10
2014,07,10,08,10,16.10
2014,07,10,08,11,16.10
2014,07,10,08,12,16.10
2014,07,10,08,13,16.10
2014,07,10,08,14,16.10
2014,07,10,08,15,16.20
2014,07,10,08,16,16.20
2014,07,10,08,17,16.20
2014,07,10,08,18,16.20
2014,07,10,08,19,16.20
2014,07,10,08,20,16.30
2014,07,10,08,21,16.30
2014,07,10,08,22,16.30
2014,07,10,08,23,16.40
2014,07,10,08,24,16.40
2014,07,10,08,25,16.50
2014,07,10,08,26,16.50
2014,07,10,08,27,16.50
2014,07,10,08,28,16.60
2014,07,10,08,29,16.60
2014,07,10,08,30,16.70
2014,07,10,08,31,16.70
2014,07,10,08,32,16.80
2014,07,10,08,33,16.80
2014,07,10,08,34,16.90
2014,07,10,08,35,16.90
2014,07,10,08,36,16.90
2014,07,10,08,37,17.00
2014,07,10,08,38,17.00
2014,07,10,08,39,17.10
2014,07,10,08,40,17.10
2014,07,10,08,41,17.20
2014,07,10,08,42,17.20
2014,07,10,08,43,17.30
2014,07,10,08,44,17.30
2014,07,10,08,45,17.40
2014,07,10,08,46,17.40
2014,07,10,08,47,17.40
2014,07,10,08,48,17.40
2014,07,10,08,49,17.50
2014,07,10,08,50,17.50
2014,07,10,08,51,17.50
2014,07,10,08,52,17.50
2014,07,10,08,53,17.40
2014,07,10,08,54,17.40
2014,07,10,08,55,17.40
2014,07,10,08,56,17.40
2014,07,10,08,57,17.40
2014,07,10,08,58,17.40
2014,07,10,08,59,17.40
2014,07,10,09,00,17.40
2014,07,10,09,01,17.40
2014,07,10,09,02,17.40
2014,07,10,09,03,17.40
2014,07,10,09,04,17.40
2014,07,10,09,05,17.40
2014,07,10,09,06,17.40
2014,07,10,09,07,17.40
2014,07,10,09,08,17.50
2014,07,10,09,09,17.50
2014,07,10,09,10,17.60
2014,07,10,09,11,17.70
2014,07,10,09,12,17.70
2014,07,10,09,13,17.80
2014,07,10,09,14,17.80
2014,07,10,09,15,17.80
2014,07,10,09,16,17.80
2014,07,10,09,17,17.90
2014,07,10,09,18,17.80
2014,07,10,09,19,17.90
2014,07,10,09,20,17.90
2014,07,10,09,21,17.90
2014,07,10,09,22,18.00
2014,07,10,09,23,18.00
2014,07,10,09,24,18.00
2014,07,10,09,25,17.90
2014,07,10,09,26,17.90
2014,07,10,09,27,17.90
2014,07,10,09,28,17.90
2014,07,10,09,29,17.90
2014,07,10,09,30,17.90
2014,07,10,09,31,18.00
2014,07,10,09,32,18.00
2014,07,10,09,33,18.00
2014,07,10,09,34,18.00
2014,07,10,09,35,18.00
2014,07,10,09,36,18.00
2014,07,10,09,37,18.00
2014,07,10,09,38,17.90
2014,07,10,09,39,17.90
2014,07,10,09,40,17.90
2014,07,10,09,41,17.90
2014,07,10,09,42,17.90
2014,07,10,09,43,17.90
2014,07,10,09,44,17.80
2014,07,10,09,45,17.80
2014,07,10,09,46,17.80
2014,07,10,09,47,17.80
2014,07,10,09,48,17.70
2014,07,10,09,49,17.80
2014,07,10,09,50,17.80
2014,07,10,09,51,17.70
2014,07,10,09,52,17.80
2014,07,10,09,53,17.80
2014,07,10,09,54,17.80
2014,07,10,09,55,17.80
2014,07,10,09,56,17.90
2014,07,10,09,57,17.90
2014,07,10,09,58,17.90
2014,07,10,09,59,17.90
2014,07,10,10,00,17.90
2014,07,10,10,01,17.90
2014,07,10,10,02,17.90
2014,07,10,10,03,17.90
2014,07,10,10,04,17.90
2014,07,10,10,05,17.90
2014,07,10,10,06,17.90
2014,07,10,10,07,18.00
2014,07,10,10,08,18.00
2014,07,10,10,09,18.00
2014,07,10,10,10,18.00
2014,07,10,10,11,18.00
2014,07,10,10,12,18.00
2014,07,10,10,13,18.00
2014,07,10,10,14,18.00
2014,07,10,10,15,18.10
2014,07,10,10,16,18.10
2014,07,10,10,17,18.10
2014,07,10,10,18,18.10
2014,07,10,10,19,18.20
2014,07,10,10,20,18.20
2014,07,10,10,21,18.20
2014,07,10,10,22,18.20
2014,07,10,10,23,18.20
2014,07,10,10,24,18.20
2014,07,10,10,25,18.30
2014,07,10,10,26,18.40
2014,07,10,10,27,18.40
2014,07,10,10,28,18.30
2014,07,10,10,29,18.40
2014,07,10,10,30,18.50
2014,07,10,10,31,18.50
2014,07,10,10,32,18.60
2014,07,10,10,33,18.70
2014,07,10,10,34,18.80
2014,07,10,10,35,18.80
2014,07,10,10,36,18.80
2014,07,10,10,37,18.80
2014,07,10,10,38,18.80
2014,07,10,10,39,18.80
2014,07,10,10,40,18.80
2014,07,10,10,41,18.80
2014,07,10,10,42,18.80
2014,07,10,10,43,18.80
2014,07,10,10,44,18.70
2014,07,10,10,45,18.60
2014,07,10,10,46,18.60
2014,07,10,10,47,18.60
2014,07,10,10,48,18.70
2014,07,10,10,49,18.60
2014,07,10,10,50,18.60
2014,07,10,10,51,18.60
2014,07,10,10,52,18.70
2014,07,10,10,53,18.70
2014,07,10,10,54,18.70
2014,07,10,10,55,18.70
2014,07,10,10,56,18.80
2014,07,10,10,57,18.80
2014,07,10,10,58,18.90
2014,07,10,10,59,18.90
2014,07,10,11,00,18.90
2014,07,10,11,01,19.00
2014,07,10,11,02,19.00
2014,07,10,11,03,19.10
2014,07,10,11,04,19.10
2014,07,10,11,05,19.10
2014,07,10,11,06,19.00
2014,07,10,11,07,19.10
2014,07,10,11,08,19.20
2014,07,10,11,09,19.30
2014,07,10,11,10,19.30
2014,07,10,11,11,19.20
2014,07,10,11,12,19.20
2014,07,10,11,13,19.20
2014,07,10,11,14,19.30
2014,07,10,11,15,19.30
2014,07,10,11,16,19.30
2014,07,10,11,17,19.30
2014,07,10,11,18,19.30
2014,07,10,11,19,19.30
2014,07,10,11,20,19.30
2014,07,10,11,21,19.20
2014,07,10,11,22,19.10
2014,07,10,11,23,19.00
2014,07,10,11,24,19.00
2014,07,10,11,25,18.90
2014,07,10,11,26,19.00
2014,07,10,11,27,19.10
2014,07,10,11,28,19.10
2014,07,10,11,29,19.10
2014,07,10,11,30,19.20
2014,07,10,11,31,19.20
2014,07,10,11,32,19.20
2014,07,10,11,33,19.20
2014,07,10,11,34,19.30
2014,07,10,11,35,19.40
2014,07,10,11,36,19.40
2014,07,10,11,37,19.30
2014,07,10,11,38,19.30
2014,07,10,11,39,19.30
2014,07,10,11,40,19.30
2014,07,10,11,41,19.30
2014,07,10,11,42,19.40
2014,07,10,11,43,19.40
2014,07,10,11,44,19.40
2014,07,10,11,45,19.40
2014,07,10,11,46,19.40
2014,07,10,11,47,19.50
2014,07,10,11,48,19.50
2014,07,10,11,49,19.60
2014,07,10,11,50,19.60
2014,07,10,11,51,19.70
2014,07,10,11,52,19.60
2014,07,10,11,53,19.40
2014,07,10,11,54,19.20
2014,07,10,11,55,19.10
2014,07,10,11,56,19.10
2014,07,10,11,57,19.10
2014,07,10,11,58,19.10
2014,07,10,11,59,19.10
2014,07,10,12,00,19.10
2014,07,10,12,01,19.10
2014,07,10,12,02,19.20
2014,07,10,12,03,19.20
2014,07,10,12,04,19.30
2014,07,10,12,05,19.40
2014,07,10,12,06,19.50
2014,07,10,12,07,19.60
2014,07,10,12,08,19.70
2014,07,10,12,09,19.80
2014,07,10,12,10,19.90
2014,07,10,12,11,19.90
2014,07,10,12,12,20.00
2014,07,10,12,13,20.00
2014,07,10,12,14,20.10
2014,07,10,12,15,20.10
2014,07,10,12,16,20.20
2014,07,10,12,17,20.30
2014,07,10,12,18,20.40
2014,07,10,12,19,20.40
2014,07,10,12,20,20.40
2014,07,10,12,21,20.40
2014,07,10,12,22,20.40
2014,07,10,12,23,20.40
2014,07,10,12,24,20.50
2014,07,10,12,25,20.60
2014,07,10,12,26,20.50
2014,07,10,12,27,20.50
2014,07,10,12,28,20.40
2014,07,10,12,29,20.30
2014,07,10,12,30,20.40
2014,07,10,12,31,20.40
2014,07,10,12,32,20.40
2014,07,10,12,33,20.50
2014,07,10,12,34,20.60
2014,07,10,12,35,20.70
2014,07,10,12,36,20.80
2014,07,10,12,37,20.80
2014,07,10,12,38,20.70
2014,07,10,12,39,20.70
2014,07,10,12,40,20.60
2014,07,10,12,41,20.50
2014,07,10,12,42,20.40
2014,07,10,12,43,20.40
2014,07,10,12,44,20.40
2014,07,10,12,45,20.50
2014,07,10,12,46,20.60
2014,07,10,12,47,20.70
2014,07,10,12,48,20.70
2014,07,10,12,49,20.80
2014,07,10,12,50,20.90
2014,07,10,12,51,21.10
2014,07,10,12,52,21.10
2014,07,10,12,53,21.20
2014,07,10,12,54,21.30
2014,07,10,12,55,21.30
2014,07,10,12,56,21.20
2014,07,10,12,57,21.20
2014,07,10,12,58,21.20
2014,07,10,12,59,21.20
2014,07,10,13,00,21.20
2014,07,10,13,01,21.20
2014,07,10,13,02,21.30
2014,07,10,13,03,21.30
2014,07,10,13,04,21.30
2014,07,10,13,05,21.20
2014,07,10,13,06,21.20
2014,07,10,13,07,21.00
2014,07,10,13,08,20.90
2014,07,10,13,09,20.90
2014,07,10,13,10,20.90
2014,07,10,13,11,20.90
2014,07,10,13,12,20.90
2014,07,10,13,13,20.80
2014,07,10,13,14,20.70
2014,07,10,13,15,20.70
2014,07,10,13,16,20.70
2014,07,10,13,17,20.70
2014,07,10,13,18,20.60
2014,07,10,13,19,20.60
2014,07,10,13,20,20.50
2014,07,10,13,21,20.40
2014,07,10,13,22,20.50
2014,07,10,13,23,20.50
2014,07,10,13,24,20.60
2014,07,10,13,25,20.60
2014,07,10,13,26,20.60
2014,07,10,13,27,20.70
2014,07,10,13,28,20.70
2014,07,10,13,29,20.70
2014,07,10,13,30,20.70
2014,07,10,13,31,20.60
2014,07,10,13,32,20.40
2014,07,10,13,33,20.20
2014,07,10,13,34,20.10
2014,07,10,13,35,20.00
2014,07,10,13,36,20.00
2014,07,10,13,37,20.10
2014,07,10,13,38,20.20
2014,07,10,13,39,20.30
2014,07,10,13,40,20.40
2014,07,10,13,41,20.50
2014,07,10,13,42,20.50
2014,07,10,13,43,20.60
2014,07,10,13,44,20.70
2014,07,10,13,45,20.80
2014,07,10,13,46,20.80
2014,07,10,13,47,20.80
2014,07,10,13,48,20.90
2014,07,10,13,49,21.00
2014,07,10,13,50,21.10
2014,07,10,13,51,21.20
2014,07,10,13,52,21.20
2014,07,10,13,53,21.30
2014,07,10,13,54,21.40
2014,07,10,13,55,21.40
2014,07,10,13,56,21.40
2014,07,10,13,57,21.50
2014,07,10,13,58,21.60
2014,07,10,13,59,21.60
2014,07,10,14,00,21.70
2014,07,10,14,01,21.70
2014,07,10,14,02,21.80
2014,07,10,14,03,21.70
2014,07,10,14,04,21.70
2014,07,10,14,05,21.60
2014,07,10,14,06,21.60
2014,07,10,14,07,21.50
2014,07,10,14,08,21.50
2014,07,10,14,09,21.40
2014,07,10,14,10,21.40
2014,07,10,14,11,21.40
2014,07,10,14,12,21.40
2014,07,10,14,13,21.40
2014,07,10,14,14,21.40
2014,07,10,14,15,21.40
2014,07,10,14,16,21.50
2014,07,10,14,17,21.50
2014,07,10,14,18,21.60
2014,07,10,14,19,21.60
2014,07,10,14,20,21.60
2014,07,10,14,21,21.70
2014,07,10,14,22,21.80
2014,07,10,14,23,21.80
2014,07,10,14,24,21.80
2014,07,10,14,25,21.80
2014,07,10,14,26,21.80
2014,07,10,14,27,21.70
2014,07,10,14,28,21.70
2014,07,10,14,29,21.70
2014,07,10,14,30,21.70
2014,07,10,14,31,21.70
2014,07,10,14,32,21.60
2014,07,10,14,33,21.50
2014,07,10,14,34,21.40
2014,07,10,14,35,21.30
2014,07,10,14,36,21.40
2014,07,10,14,37,21.40
2014,07,10,14,38,21.50
2014,07,10,14,39,21.50
2014,07,10,14,40,21.60
2014,07,10,14,41,21.60
2014,07,10,14,42,21.60
2014,07,10,14,43,21.70
2014,07,10,14,44,21.70
2014,07,10,14,45,21.70
2014,07,10,14,46,21.70
2014,07,10,14,47,21.80
2014,07,10,14,48,21.80
2014,07,10,14,49,21.90
2014,07,10,14,50,22.00
2014,07,10,14,51,22.00
2014,07,10,14,52,22.10
2014,07,10,14,53,22.20
2014,07,10,14,54,22.30
2014,07,10,14,55,22.40
2014,07,10,14,56,22.50
2014,07,10,14,57,22.60
2014,07,10,14,58,22.60
2014,07,10,14,59,22.60
2014,07,10,15,00,22.60
2014,07,10,15,01,22.60
2014,07,10,15,02,22.60
2014,07,10,15,03,22.70
2014,07,10,15,04,22.80
2014,07,10,15,05,22.80
2014,07,10,15,06,22.70
2014,07,10,15,07,22.70
2014,07,10,15,08,22.70
2014,07,10,15,09,22.70
2014,07,10,15,10,22.80
2014,07,10,15,11,22.80
2014,07,10,15,12,22.80
2014,07,10,15,13,22.90
2014,07,10,15,14,22.90
2014,07,10,15,15,22.80
2014,07,10,15,16,22.80
2014,07,10,15,17,22.70
2014,07,10,15,18,22.70
2014,07,10,15,19,22.70
2014,07,10,15,20,22.60
2014,07,10,15,21,22.70
2014,07,10,15,22,22.70
2014,07,10,15,23,22.70
2014,07,10,15,24,22.70
2014,07,10,15,25,22.70
2014,07,10,15,26,22.60
2014,07,10,15,27,22.60
2014,07,10,15,28,22.60
2014,07,10,15,29,22.70
2014,07,10,15,30,22.60
2014,07,10,15,31,22.60
2014,07,10,15,32,22.70
2014,07,10,15,33,22.70
2014,07,10,15,34,22.80
2014,07,10,15,35,22.90
2014,07,10,15,36,22.90
2014,07,10,15,37,22.90
2014,07,10,15,38,22.90
2014,07,10,15,39,22.90
2014,07,10,15,40,22.90
2014,07,10,15,41,22.90
2014,07,10,15,42,22.90
2014,07,10,15,43,22.90
2014,07,10,15,44,22.90
2014,07,10,15,45,22.90
2014,07,10,15,46,22.90
2014,07,10,15,47,22.80
2014,07,10,15,48,22.80
2014,07,10,15,49,22.80
2014,07,10,15,50,22.90
2014,07,10,15,51,22.90
2014,07,10,15,52,22.90
2014,07,10,15,53,23.00
2014,07,10,15,54,23.00
2014,07,10,15,55,23.10
2014,07,10,15,56,23.10
2014,07,10,15,57,23.10
2014,07,10,15,58,23.20
2014,07,10,15,59,23.20
2014,07,10,16,00,23.20
2014,07,10,16,01,23.20
2014,07,10,16,02,23.20
2014,07,10,16,03,23.20
2014,07,10,16,04,23.20
2014,07,10,16,05,23.20
2014,07,10,16,06,23.20
2014,07,10,16,07,23.20
2014,07,10,16,08,23.30
2014,07,10,16,09,23.40
2014,07,10,16,10,23.40
2014,07,10,16,11,23.50
2014,07,10,16,12,23.60
2014,07,10,16,13,23.70
2014,07,10,16,14,23.70
2014,07,10,16,15,23.80
2014,07,10,16,16,23.80
2014,07,10,16,17,23.80
2014,07,10,16,18,23.80
2014,07,10,16,19,23.80
2014,07,10,16,20,23.80
2014,07,10,16,21,23.80
2014,07,10,16,22,23.80
2014,07,10,16,23,23.90
2014,07,10,16,24,23.90
2014,07,10,16,25,23.90
2014,07,10,16,26,23.90
2014,07,10,16,27,23.80
2014,07,10,16,28,23.80
2014,07,10,16,29,23.70
2014,07,10,16,30,23.70
2014,07,10,16,31,23.60
2014,07,10,16,32,23.60
2014,07,10,16,33,23.70
2014,07,10,16,34,23.70
2014,07,10,16,35,23.70
2014,07,10,16,36,23.80
2014,07,10,16,37,23.80
2014,07,10,16,38,23.90
2014,07,10,16,39,24.00
2014,07,10,16,40,24.10
2014,07,10,16,41,24.10
2014,07,10,16,42,24.20
2014,07,10,16,43,24.20
2014,07,10,16,44,24.20
2014,07,10,16,45,24.20
2014,07,10,16,46,24.20
2014,07,10,16,47,24.20
2014,07,10,16,48,24.20
2014,07,10,16,49,24.20
2014,07,10,16,50,24.30
2014,07,10,16,51,24.30
2014,07,10,16,52,24.30
2014,07,10,16,53,24.40
2014,07,10,16,54,24.50
2014,07,10,16,55,24.60
2014,07,10,16,56,24.50
2014,07,10,16,57,24.40
2014,07,10,16,58,24.30
2014,07,10,16,59,24.30
2014,07,10,17,00,24.30
2014,07,10,17,01,24.30
2014,07,10,17,02,24.30
2014,07,10,17,03,24.30
2014,07,10,17,04,24.30
2014,07,10,17,05,24.30
2014,07,10,17,06,24.30
2014,07,10,17,07,24.30
2014,07,10,17,08,24.30
2014,07,10,17,09,24.30
2014,07,10,17,10,24.40
2014,07,10,17,11,24.30
2014,07,10,17,12,24.30
2014,07,10,17,13,24.40
2014,07,10,17,14,24.40
2014,07,10,17,15,24.50
2014,07,10,17,16,24.60
2014,07,10,17,17,24.60
2014,07,10,17,18,24.70
2014,07,10,17,19,24.70